User: anonymous   Login
Location: Unspecified
(0.0000°N, 0.0000°E)
Time: 03:00:00
(UTC+00:00)
Language:

STARLINK-36064 - Orbit

View from above orbital plane
View from above orbital plane
View from above satellite
View from above satellite

Ground track
Ground track

The orbit is defined by the following mean orbital elements,

1 66899U          26145.39964331 +.00000000 +00000-0 +74130-3 0 00005
2 66899  53.1602  27.5115 0003034  73.6767 286.4569 15.34395650    05
Epoch (UTC): 25 May 2026 09:35:29
Eccentricity: 0.0003034
inclination: 53.1602°
perigee height: 461 km
apogee height: 465 km
right ascension of ascending node: 27.5115°
argument of perigee: 73.6767°
revolutions per day: 15.34395650
mean anomaly at epoch: 286.4569°

The dashed part of the orbit path shows where the satellite is in the earth's shadow,  

DLR